| time (UTC) | temp F | wind direction | speed MPH | gust MPH | rain 1hr in | rain 24hr in | rain mn in | humidity % | barometer mb |
| 20260509213515 | 53 | 32 | 7.0 | 14.0 | 0.00 | 0.00 | 0.00 | 84 | 1018.8 |
| 20260509213036 | 53 | 337 | 5.0 | 14.0 | 0.00 | 0.00 | 0.00 | 83 | 1018.9 |
| 20260509212516 | 54 | 34 | 7.0 | 13.0 | 0.00 | 0.00 | 0.00 | 83 | 1018.9 |
| 20260509212015 | 54 | 8 | 7.0 | 13.0 | 0.00 | 0.00 | 0.00 | 83 | 1018.9 |
| 20260509211537 | 53 | 343 | 6.0 | 12.0 | 0.00 | 0.00 | 0.00 | 84 | 1018.9 |
| 20260509211015 | 53 | 23 | 5.0 | 11.0 | 0.00 | 0.00 | 0.00 | 84 | 1018.8 |
| 20260509210516 | 53 | 7 | 5.0 | 10.0 | 0.00 | 0.00 | 0.00 | 84 | 1018.7 |
| 20260509210038 | 53 | 28 | 6.0 | 12.0 | 0.00 | 0.00 | 0.00 | 84 | 1018.8 |
| 20260509205515 | 53 | 343 | 6.0 | 12.0 | 0.00 | 0.00 | 0.00 | 83 | 1018.8 |
| 20260509205015 | 53 | 17 | 7.0 | 13.0 | 0.00 | 0.00 | 0.00 | 84 | 1018.8 |
| 20260509204533 | 53 | 19 | 7.0 | 13.0 | 0.00 | 0.00 | 0.00 | 84 | 1018.8 |
| 20260509204015 | 53 | 6 | 6.0 | 11.0 | 0.00 | 0.00 | 0.00 | 84 | 1018.8 |
| 20260509203517 | 53 | 347 | 5.0 | 11.0 | 0.00 | 0.00 | 0.00 | 84 | 1018.8 |
| 20260509203033 | 53 | 351 | 6.0 | 14.0 | 0.00 | 0.00 | 0.00 | 84 | 1018.8 |
| 20260509202517 | 54 | 330 | 5.0 | 14.0 | 0.00 | 0.00 | 0.00 | 85 | 1018.8 |
| 20260509202018 | 54 | 1 | 7.0 | 12.0 | 0.00 | 0.00 | 0.00 | 85 | 1018.7 |
| 20260509201535 | 54 | 13 | 4.0 | 9.0 | 0.00 | 0.00 | 0.00 | 86 | 1018.7 |
| 20260509201014 | 54 | 23 | 6.0 | 9.0 | 0.00 | 0.00 | 0.00 | 85 | 1018.8 |
| 20260509200515 | 54 | 356 | 5.0 | 9.0 | 0.00 | 0.00 | 0.00 | 85 | 1018.7 |
| 20260509200040 | 54 | 357 | 4.0 | 9.0 | 0.00 | 0.00 | 0.00 | 85 | 1018.7 |
| 20260509195522 | 54 | 335 | 5.0 | 9.0 | 0.00 | 0.00 | 0.00 | 85 | 1018.7 |
| 20260509195015 | 54 | 340 | 4.0 | 9.0 | 0.00 | 0.00 | 0.00 | 85 | 1018.7 |
| 20260509194532 | 54 | 334 | 5.0 | 9.0 | 0.00 | 0.00 | 0.00 | 86 | 1018.7 |
| 20260509194015 | 54 | 13 | 4.0 | 10.0 | 0.00 | 0.00 | 0.00 | 86 | 1018.7 |
| 20260509193521 | 54 | 328 | 5.0 | 10.0 | 0.00 | 0.00 | 0.00 | 87 | 1018.7 |
| 20260509193031 | 54 | 320 | 5.0 | 10.0 | 0.00 | 0.00 | 0.00 | 87 | 1018.7 |
| 20260509192515 | 54 | 336 | 5.0 | 10.0 | 0.00 | 0.00 | 0.00 | 87 | 1018.7 |
| 20260509192020 | 54 | 338 | 4.0 | 10.0 | 0.00 | 0.00 | 0.00 | 87 | 1018.7 |
| 20260509191533 | 54 | 335 | 5.0 | 10.0 | 0.00 | 0.00 | 0.00 | 87 | 1018.8 |
| 20260509191014 | 54 | 335 | 3.0 | 8.0 | 0.00 | 0.00 | 0.00 | 86 | 1018.7 |
| 20260509190515 | 54 | 310 | 3.0 | 9.0 | 0.00 | 0.00 | 0.00 | 86 | 1018.7 |
| 20260509190035 | 54 | 322 | 4.0 | 9.0 | 0.00 | 0.00 | 0.00 | 87 | 1018.7 |
| 20260509185515 | 54 | 335 | 6.0 | 10.0 | 0.00 | 0.00 | 0.00 | 87 | 1018.6 |
| 20260509185019 | 55 | 322 | 6.0 | 10.0 | 0.00 | 0.00 | 0.00 | 86 | 1018.5 |
| 20260509184539 | 55 | 329 | 6.0 | 10.0 | 0.00 | 0.00 | 0.00 | 86 | 1018.5 |
| 20260509184015 | 55 | 323 | 6.0 | 11.0 | 0.00 | 0.00 | 0.00 | 85 | 1018.6 |
| 20260509183515 | 55 | 319 | 7.0 | 11.0 | 0.00 | 0.00 | 0.00 | 84 | 1018.5 |
| 20260509183035 | 55 | 329 | 6.0 | 11.0 | 0.00 | 0.00 | 0.00 | 84 | 1018.5 |
| 20260509182519 | 55 | 333 | 6.0 | 11.0 | 0.00 | 0.00 | 0.00 | 85 | 1018.5 |
| 20260509182015 | 55 | 319 | 6.0 | 11.0 | 0.00 | 0.00 | 0.00 | 85 | 1018.6 |
| 20260509181533 | 55 | 340 | 6.0 | 11.0 | 0.00 | 0.00 | 0.00 | 86 | 1018.5 |
| 20260509181015 | 55 | 316 | 6.0 | 11.0 | 0.00 | 0.00 | 0.00 | 86 | 1018.5 |
| 20260509180523 | 55 | 338 | 6.0 | 10.0 | 0.00 | 0.00 | 0.00 | 86 | 1018.5 |
| 20260509180032 | 55 | 337 | 6.0 | 9.0 | 0.00 | 0.00 | 0.00 | 86 | 1018.4 |
| 20260509175517 | 56 | 320 | 6.0 | 10.0 | 0.00 | 0.00 | 0.00 | 86 | 1018.4 |
| 20260509175016 | 56 | 311 | 6.0 | 11.0 | 0.00 | 0.00 | 0.00 | 86 | 1018.3 |
| 20260509174535 | 56 | 311 | 6.0 | 12.0 | 0.00 | 0.00 | 0.00 | 85 | 1018.3 |
| 20260509174015 | 56 | 338 | 7.0 | 12.0 | 0.00 | 0.00 | 0.00 | 85 | 1018.2 |
| 20260509173515 | 56 | 326 | 7.0 | 12.0 | 0.00 | 0.00 | 0.00 | 85 | 1018.2 |
| 20260509173035 | 56 | 326 | 6.0 | 11.0 | 0.00 | 0.00 | 0.00 | 85 | 1018.2 |
| 20260509172515 | 56 | 345 | 7.0 | 13.0 | 0.00 | 0.00 | 0.00 | 85 | 1018.3 |
| 20260509172016 | 56 | 303 | 6.0 | 13.0 | 0.00 | 0.00 | 0.00 | 84 | 1018.4 |
| 20260509171533 | 56 | 337 | 7.0 | 13.0 | 0.00 | 0.00 | 0.00 | 84 | 1018.4 |
| 20260509171019 | 56 | 350 | 8.0 | 12.0 | 0.00 | 0.00 | 0.00 | 83 | 1018.3 |
| 20260509170515 | 56 | 321 | 9.0 | 12.0 | 0.00 | 0.00 | 0.00 | 82 | 1018.3 |
| 20260509170034 | 56 | 311 | 8.0 | 12.0 | 0.00 | 0.00 | 0.00 | 82 | 1018.3 |
| 20260509165516 | 56 | 311 | 8.0 | 13.0 | 0.00 | 0.00 | 0.00 | 83 | 1018.3 |
| 20260509165015 | 56 | 329 | 8.0 | 13.0 | 0.00 | 0.00 | 0.00 | 83 | 1018.4 |
| 20260509164532 | 56 | 313 | 8.0 | 11.0 | 0.00 | 0.00 | 0.00 | 84 | 1018.3 |
| 20260509164016 | 56 | 314 | 8.0 | 13.0 | 0.00 | 0.00 | 0.00 | 84 | 1018.3 |
| 20260509163521 | 56 | 312 | 8.0 | 13.0 | 0.00 | 0.00 | 0.00 | 84 | 1018.3 |
| 20260509163042 | 55 | 316 | 9.0 | 12.0 | 0.00 | 0.00 | 0.00 | 83 | 1018.3 |
| 20260509162516 | 54 | 311 | 7.0 | 11.0 | 0.00 | 0.00 | 0.00 | 83 | 1018.3 |
| 20260509162015 | 54 | 324 | 7.0 | 11.0 | 0.00 | 0.00 | 0.00 | 85 | 1018.3 |
| 20260509161533 | 55 | 328 | 7.0 | 10.0 | 0.00 | 0.00 | 0.00 | 84 | 1018.4 |
| 20260509161015 | 55 | 328 | 6.0 | 10.0 | 0.00 | 0.00 | 0.00 | 84 | 1018.3 |
| 20260509160515 | 55 | 343 | 6.0 | 13.0 | 0.00 | 0.00 | 0.00 | 84 | 1018.3 |
| 20260509160035 | 56 | 342 | 7.0 | 13.0 | 0.00 | 0.00 | 0.00 | 83 | 1018.4 |
| 20260509155516 | 56 | 333 | 9.0 | 12.0 | 0.00 | 0.00 | 0.00 | 82 | 1018.5 |
| 20260509155020 | 56 | 337 | 6.0 | 13.0 | 0.00 | 0.00 | 0.00 | 82 | 1018.4 |
| 20260509154541 | 56 | 358 | 8.0 | 13.0 | 0.00 | 0.00 | 0.00 | 82 | 1018.3 |
| 20260509154020 | 57 | 316 | 8.0 | 12.0 | 0.00 | 0.00 | 0.00 | 81 | 1018.3 |
| 20260509153516 | 57 | 22 | 8.0 | 15.0 | 0.00 | 0.00 | 0.00 | 80 | 1018.2 |
| 20260509153036 | 58 | 331 | 8.0 | 17.0 | 0.00 | 0.00 | 0.00 | 81 | 1018.2 |
| 20260509152519 | 58 | 326 | 11.0 | 17.0 | 0.00 | 0.00 | 0.00 | 80 | 1018.2 |
| 20260509152021 | 59 | 316 | 10.0 | 16.0 | 0.00 | 0.00 | 0.00 | 76 | 1018.2 |
| 20260509151535 | 59 | 334 | 11.0 | 19.0 | 0.00 | 0.00 | 0.00 | 77 | 1018.2 |
| 20260509151016 | 59 | 314 | 10.0 | 19.0 | 0.00 | 0.00 | 0.00 | 77 | 1018.2 |
| 20260509150517 | 60 | 328 | 10.0 | 17.0 | 0.00 | 0.00 | 0.00 | 76 | 1018.2 |
| 20260509150035 | 61 | 333 | 9.0 | 18.0 | 0.00 | 0.00 | 0.00 | 78 | 1018.2 |
| 20260509145516 | 60 | 318 | 11.0 | 18.0 | 0.00 | 0.00 | 0.00 | 80 | 1018.2 |
| 20260509145017 | 60 | 344 | 12.0 | 18.0 | 0.00 | 0.00 | 0.00 | 81 | 1018.2 |
| 20260509144532 | 60 | 321 | 10.0 | 15.0 | 0.00 | 0.00 | 0.00 | 81 | 1018.2 |
| 20260509144015 | 60 | 303 | 8.0 | 16.0 | 0.00 | 0.00 | 0.00 | 82 | 1018.3 |
| 20260509143515 | 60 | 313 | 8.0 | 16.0 | 0.00 | 0.00 | 0.00 | 80 | 1018.3 |
| 20260509143044 | 61 | 321 | 6.0 | 16.0 | 0.00 | 0.00 | 0.00 | 80 | 1018.2 |
| 20260509142515 | 61 | 304 | 5.0 | 13.0 | 0.00 | 0.00 | 0.00 | 78 | 1018.4 |
| 20260509142017 | 61 | 319 | 7.0 | 13.0 | 0.00 | 0.00 | 0.00 | 79 | 1018.3 |
| 20260509141539 | 61 | 285 | 4.0 | 7.0 | 0.00 | 0.00 | 0.00 | 79 | 1018.4 |
| 20260509141015 | 61 | 283 | 4.0 | 7.0 | 0.00 | 0.00 | 0.00 | 79 | 1018.3 |
| 20260509140516 | 60 | 295 | 4.0 | 8.0 | 0.00 | 0.00 | 0.00 | 77 | 1018.3 |
| 20260509140046 | 60 | 305 | 4.0 | 8.0 | 0.00 | 0.00 | 0.00 | 76 | 1018.3 |
| 20260509135516 | 61 | 293 | 4.0 | 7.0 | 0.00 | 0.00 | 0.00 | 76 | 1018.3 |
| 20260509135015 | 61 | 293 | 5.0 | 7.0 | 0.00 | 0.00 | 0.00 | 72 | 1018.4 |
| 20260509134536 | 61 | 287 | 4.0 | 8.0 | 0.00 | 0.00 | 0.00 | 73 | 1018.3 |
| 20260509134015 | 62 | 286 | 5.0 | 8.0 | 0.00 | 0.00 | 0.00 | 73 | 1018.4 |
| 20260509133515 | 62 | 302 | 4.0 | 7.0 | 0.00 | 0.00 | 0.00 | 74 | 1018.4 |
| 20260509133034 | 62 | 283 | 4.0 | 6.0 | 0.00 | 0.00 | 0.00 | 72 | 1018.4 |
| 20260509132517 | 62 | 297 | 1.0 | 4.0 | 0.00 | 0.00 | 0.00 | 73 | 1018.3 |
| 20260509132018 | 62 | 302 | 1.0 | 7.0 | 0.00 | 0.00 | 0.00 | 73 | 1018.3 |
| 20260509131537 | 61 | 299 | 3.0 | 7.0 | 0.00 | 0.00 | 0.00 | 75 | 1018.3 |
| 20260509131023 | 62 | 303 | 4.0 | 7.0 | 0.00 | 0.00 | 0.00 | 74 | 1018.4 |
| 20260509130515 | 63 | 308 | 2.0 | 5.0 | 0.00 | 0.00 | 0.00 | 72 | 1018.3 |
| 20260509130036 | 65 | 290 | 1.0 | 5.0 | 0.00 | 0.00 | 0.00 | 70 | 1018.2 |
| 20260509125518 | 65 | 308 | 1.0 | 4.0 | 0.00 | 0.00 | 0.00 | 69 | 1018.2 |
| 20260509125015 | 65 | 272 | 1.0 | 3.0 | 0.00 | 0.00 | 0.00 | 70 | 1018.2 |
| 20260509124535 | 64 | 300 | 0.0 | 3.0 | 0.00 | 0.00 | 0.00 | 73 | 1018.2 |
| 20260509124018 | 63 | 298 | 0.0 | 2.0 | 0.00 | 0.00 | 0.00 | 73 | 1018.3 |
| 20260509123518 | 64 | 301 | 1.0 | 4.0 | 0.00 | 0.00 | 0.00 | 71 | 1018.2 |
| 20260509123044 | 63 | 351 | 1.0 | 4.0 | 0.00 | 0.00 | 0.00 | 74 | 1018.2 |
| 20260509122517 | 63 | 308 | 1.0 | 5.0 | 0.00 | 0.00 | 0.00 | 74 | 1018.3 |
| 20260509122015 | 62 | 297 | 1.0 | 6.0 | 0.00 | 0.00 | 0.00 | 76 | 1018.3 |
| 20260509121535 | 64 | 278 | 2.0 | 6.0 | 0.00 | 0.00 | 0.00 | 71 | 1018.3 |
| 20260509121016 | 65 | 62 | 3.0 | 6.0 | 0.00 | 0.00 | 0.00 | 70 | 1018.3 |
| 20260509120516 | 64 | 297 | 0.0 | 7.0 | 0.00 | 0.00 | 0.00 | 70 | 1018.4 |
| 20260509120033 | 65 | 299 | 0.0 | 7.0 | 0.00 | 0.00 | 0.00 | 73 | 1018.3 |
| 20260509115518 | 66 | 293 | 1.0 | 8.0 | 0.00 | 0.00 | 0.00 | 63 | 1018.3 |
| 20260509115022 | 65 | 118 | 2.0 | 9.0 | 0.00 | 0.00 | 0.00 | 62 | 1018.4 |
| 20260509114535 | 66 | 136 | 4.0 | 9.0 | 0.00 | 0.00 | 0.00 | 68 | 1018.5 |
| 20260509114016 | 66 | 108 | 3.0 | 8.0 | 0.00 | 0.00 | 0.00 | 64 | 1018.5 |
| 20260509113516 | 65 | 306 | 4.0 | 10.0 | 0.00 | 0.00 | 0.00 | 63 | 1018.5 |
| 20260509113036 | 64 | 291 | 5.0 | 10.0 | 0.00 | 0.00 | 0.00 | 66 | 1018.7 |
| 20260509112516 | 64 | 53 | 3.0 | 8.0 | 0.00 | 0.00 | 0.00 | 69 | 1018.7 |
| 20260509112015 | 64 | 46 | 4.0 | 8.0 | 0.00 | 0.00 | 0.00 | 67 | 1018.7 |
| 20260509111542 | 64 | 92 | 6.0 | 8.0 | 0.00 | 0.00 | 0.00 | 68 | 1018.8 |
| 20260509111017 | 63 | 319 | 1.0 | 4.0 | 0.00 | 0.00 | 0.00 | 74 | 1018.8 |
| 20260509110517 | 63 | 328 | 1.0 | 6.0 | 0.00 | 0.00 | 0.00 | 73 | 1018.8 |
| 20260509110035 | 63 | 294 | 2.0 | 6.0 | 0.00 | 0.00 | 0.00 | 72 | 1018.8 |
| 20260509105516 | 63 | 300 | 2.0 | 6.0 | 0.00 | 0.00 | 0.00 | 71 | 1018.9 |
| 20260509105016 | 63 | 287 | 1.0 | 6.0 | 0.00 | 0.00 | 0.00 | 75 | 1018.9 |
| 20260509104534 | 63 | 324 | 3.0 | 6.0 | 0.00 | 0.00 | 0.00 | 75 | 1018.9 |
| 20260509104019 | 63 | 16 | 1.0 | 8.0 | 0.00 | 0.00 | 0.00 | 76 | 1019.0 |
| 20260509103521 | 62 | 345 | 2.0 | 8.0 | 0.00 | 0.00 | 0.00 | 72 | 1018.9 |
| 20260509103043 | 61 | 271 | 4.0 | 7.0 | 0.00 | 0.00 | 0.00 | 70 | 1019.0 |
| 20260509102515 | 61 | 112 | 3.0 | 6.0 | 0.00 | 0.00 | 0.00 | 75 | 1019.0 |
| 20260509102019 | 60 | 17 | 3.0 | 6.0 | 0.00 | 0.00 | 0.00 | 74 | 1019.1 |
| 20260509101534 | 61 | 115 | 3.0 | 8.0 | 0.00 | 0.00 | 0.00 | 73 | 1019.2 |
| 20260509101015 | 61 | 19 | 5.0 | 8.0 | 0.00 | 0.00 | 0.00 | 71 | 1019.1 |
| 20260509100515 | 62 | 70 | 3.0 | 9.0 | 0.00 | 0.00 | 0.00 | 72 | 1019.1 |
| 20260509100038 | 62 | 120 | 4.0 | 9.0 | 0.00 | 0.00 | 0.00 | 69 | 1019.1 |
| 20260509095515 | 62 | 98 | 5.0 | 9.0 | 0.00 | 0.00 | 0.00 | 66 | 1019.0 |
| 20260509095019 | 63 | 304 | 2.0 | 6.0 | 0.00 | 0.00 | 0.00 | 67 | 1018.9 |
| 20260509094541 | 63 | 136 | 2.0 | 6.0 | 0.00 | 0.00 | 0.00 | 68 | 1019.0 |
| 20260509094015 | 64 | 315 | 1.0 | 4.0 | 0.00 | 0.00 | 0.00 | 69 | 1019.0 |
| 20260509093515 | 63 | 0 | 1.0 | 7.0 | 0.00 | 0.00 | 0.00 | 70 | 1019.0 |
| 20260509093030 | 62 | 326 | 1.0 | 7.0 | 0.00 | 0.00 | 0.00 | 73 | 1019.0 |
| 20260509092515 | 61 | 321 | 2.0 | 7.0 | 0.00 | 0.00 | 0.00 | 71 | 1018.9 |
| 20260509092015 | 61 | 319 | 2.0 | 6.0 | 0.00 | 0.00 | 0.00 | 74 | 1018.9 |
| 20260509091534 | 61 | 322 | 1.0 | 6.0 | 0.00 | 0.00 | 0.00 | 74 | 1018.9 |
| 20260509091015 | 61 | 328 | 2.0 | 6.0 | 0.00 | 0.00 | 0.00 | 73 | 1018.9 |
| 20260509090517 | 60 | 309 | 1.0 | 7.0 | 0.00 | 0.00 | 0.00 | 76 | 1018.9 |
| 20260509090032 | 60 | 297 | 1.0 | 7.0 | 0.00 | 0.00 | 0.00 | 75 | 1018.9 |
| 20260509085517 | 60 | 333 | 2.0 | 7.0 | 0.00 | 0.00 | 0.00 | 74 | 1018.9 |
| 20260509085015 | 60 | 311 | 1.0 | 8.0 | 0.00 | 0.00 | 0.00 | 76 | 1018.9 |
| 20260509084530 | 59 | 342 | 2.0 | 8.0 | 0.00 | 0.00 | 0.00 | 76 | 1018.8 |
| 20260509084015 | 59 | 319 | 2.0 | 8.0 | 0.00 | 0.00 | 0.00 | 75 | 1018.8 |
| 20260509083518 | 59 | 319 | 3.0 | 10.0 | 0.00 | 0.00 | 0.00 | 75 | 1018.8 |
| 20260509083042 | 59 | 320 | 3.0 | 10.0 | 0.00 | 0.00 | 0.00 | 75 | 1018.8 |
| 20260509082516 | 58 | 309 | 1.0 | 8.0 | 0.00 | 0.00 | 0.00 | 77 | 1018.8 |
| 20260509082017 | 58 | 331 | 3.0 | 8.0 | 0.00 | 0.00 | 0.00 | 76 | 1018.7 |
| 20260509081534 | 58 | 359 | 2.0 | 8.0 | 0.00 | 0.00 | 0.00 | 77 | 1018.7 |
| 20260509081016 | 57 | 25 | 3.0 | 8.0 | 0.00 | 0.00 | 0.00 | 78 | 1018.7 |
| 20260509080520 | 57 | 356 | 2.0 | 8.0 | 0.00 | 0.00 | 0.00 | 79 | 1018.8 |
| 20260509080041 | 56 | 8 | 2.0 | 10.0 | 0.00 | 0.00 | 0.00 | 78 | 1018.8 |
| 20260509075515 | 56 | 312 | 1.0 | 10.0 | 0.00 | 0.00 | 0.00 | 78 | 1018.8 |
| 20260509075015 | 56 | 20 | 3.0 | 8.0 | 0.00 | 0.00 | 0.00 | 78 | 1018.8 |
| 20260509074531 | 56 | 24 | 4.0 | 9.0 | 0.00 | 0.00 | 0.00 | 78 | 1018.8 |
| 20260509074018 | 56 | 327 | 5.0 | 9.0 | 0.00 | 0.00 | 0.00 | 79 | 1018.8 |
| 20260509073520 | 55 | 326 | 3.0 | 8.0 | 0.00 | 0.00 | 0.00 | 79 | 1018.8 |
| 20260509073044 | 55 | 334 | 3.0 | 8.0 | 0.00 | 0.00 | 0.00 | 80 | 1018.9 |
| 20260509072521 | 55 | 14 | 4.0 | 8.0 | 0.00 | 0.00 | 0.00 | 80 | 1018.9 |
| 20260509072018 | 54 | 349 | 4.0 | 9.0 | 0.00 | 0.00 | 0.00 | 81 | 1018.9 |
| 20260509071535 | 54 | 356 | 3.0 | 9.0 | 0.00 | 0.00 | 0.00 | 81 | 1018.8 |
| 20260509071019 | 54 | 344 | 4.0 | 9.0 | 0.00 | 0.00 | 0.00 | 82 | 1018.9 |
| 20260509070519 | 54 | 356 | 3.0 | 9.0 | 0.00 | 0.00 | 0.00 | 82 | 1018.9 |
| 20260509070033 | 54 | 335 | 3.0 | 6.0 | 0.00 | 0.00 | 0.00 | 83 | 1018.7 |
| 20260509065518 | 53 | 346 | 2.0 | 6.0 | 0.00 | 0.00 | 0.00 | 82 | 1018.8 |
| 20260509065015 | 53 | 319 | 2.0 | 6.0 | 0.00 | 0.00 | 0.00 | 82 | 1018.7 |
| 20260509064534 | 53 | 338 | 2.0 | 6.0 | 0.00 | 0.00 | 0.00 | 82 | 1018.7 |
| 20260509064016 | 52 | 336 | 3.0 | 5.0 | 0.00 | 0.00 | 0.00 | 83 | 1018.7 |
| 20260509063517 | 52 | 329 | 2.0 | 5.0 | 0.00 | 0.00 | 0.00 | 83 | 1018.5 |
| 20260509063036 | 52 | 335 | 2.0 | 5.0 | 0.00 | 0.00 | 0.00 | 82 | 1018.6 |
| 20260509062515 | 52 | 339 | 2.0 | 5.0 | 0.00 | 0.00 | 0.00 | 82 | 1018.5 |
| 20260509062014 | 51 | 5 | 2.0 | 5.0 | 0.00 | 0.00 | 0.00 | 82 | 1018.6 |
| 20260509061547 | 51 | 342 | 2.0 | 7.0 | 0.00 | 0.00 | 0.00 | 82 | 1018.6 |
| 20260509061015 | 51 | 356 | 2.0 | 7.0 | 0.00 | 0.00 | 0.00 | 82 | 1018.5 |
| 20260509060515 | 51 | 15 | 2.0 | 5.0 | 0.00 | 0.00 | 0.00 | 82 | 1018.5 |
| 20260509060031 | 51 | 329 | 2.0 | 5.0 | 0.00 | 0.00 | 0.00 | 83 | 1018.5 |
| 20260509055525 | 51 | 356 | 2.0 | 5.0 | 0.00 | 0.00 | 0.00 | 83 | 1018.5 |
| 20260509055019 | 51 | 326 | 2.0 | 5.0 | 0.00 | 0.00 | 0.00 | 83 | 1018.4 |
| 20260509054541 | 51 | 329 | 3.0 | 5.0 | 0.00 | 0.00 | 0.00 | 83 | 1018.4 |
| 20260509054018 | 51 | 334 | 3.0 | 6.0 | 0.00 | 0.00 | 0.00 | 82 | 1018.3 |
| 20260509053518 | 51 | 7 | 1.0 | 7.0 | 0.00 | 0.00 | 0.00 | 82 | 1018.2 |
| 20260509053050 | 51 | 327 | 2.0 | 7.0 | 0.00 | 0.00 | 0.00 | 82 | 1018.2 |
| 20260509052518 | 50 | 359 | 3.0 | 6.0 | 0.00 | 0.00 | 0.00 | 82 | 1018.2 |
| 20260509052018 | 50 | 329 | 2.0 | 4.0 | 0.00 | 0.00 | 0.00 | 82 | 1018.1 |
| 20260509051534 | 51 | 325 | 2.0 | 4.0 | 0.00 | 0.00 | 0.00 | 81 | 1018.1 |
| 20260509051020 | 51 | 334 | 1.0 | 4.0 | 0.00 | 0.00 | 0.00 | 81 | 1018.0 |
| 20260509050516 | 51 | 332 | 1.0 | 4.0 | 0.00 | 0.00 | 0.00 | 80 | 1018.0 |
| 20260509050033 | 51 | 324 | 0.0 | 3.0 | 0.00 | 0.00 | 0.00 | 80 | 1017.9 |
| 20260509045522 | 51 | 0 | 0.0 | 4.0 | 0.00 | 0.00 | 0.00 | 80 | 1018.1 |
| 20260509045015 | 51 | 325 | 1.0 | 4.0 | 0.00 | 0.00 | 0.00 | 80 | 1018.0 |
| 20260509044543 | 51 | 324 | 0.0 | 3.0 | 0.00 | 0.00 | 0.00 | 81 | 1018.0 |
| 20260509044015 | 51 | 336 | 0.0 | 2.0 | 0.00 | 0.00 | 0.00 | 81 | 1018.0 |
| 20260509043516 | 51 | 327 | 0.0 | 2.0 | 0.00 | 0.00 | 0.00 | 81 | 1018.1 |
| 20260509043038 | 50 | 327 | 0.0 | 3.0 | 0.00 | 0.00 | 0.00 | 82 | 1018.2 |
| 20260509042519 | 50 | 323 | 0.0 | 3.0 | 0.00 | 0.00 | 0.00 | 82 | 1018.2 |
| 20260509042018 | 50 | 328 | 1.0 | 3.0 | 0.00 | 0.00 | 0.00 | 82 | 1018.2 |
| 20260509041535 | 50 | 334 | 1.0 | 5.0 | 0.00 | 0.00 | 0.00 | 83 | 1018.1 |
| 20260509041016 | 50 | 333 | 1.0 | 5.0 | 0.00 | 0.00 | 0.00 | 83 | 1018.2 |
| 20260509040516 | 50 | 333 | 2.0 | 5.0 | 0.00 | 0.00 | 0.00 | 83 | 1018.1 |
| 20260509040037 | 50 | 349 | 3.0 | 4.0 | 0.00 | 0.00 | 0.00 | 84 | 1018.1 |
| 20260509035517 | 50 | 345 | 3.0 | 4.0 | 0.00 | 0.00 | 0.00 | 84 | 1018.1 |
| 20260509035017 | 50 | 326 | 2.0 | 5.0 | 0.00 | 0.00 | 0.00 | 84 | 1018.1 |
| 20260509034535 | 50 | 336 | 2.0 | 5.0 | 0.00 | 0.00 | 0.00 | 84 | 1018.0 |
| 20260509034015 | 50 | 345 | 2.0 | 5.0 | 0.00 | 0.00 | 0.00 | 84 | 1018.1 |
| 20260509033515 | 50 | 342 | 2.0 | 6.0 | 0.00 | 0.00 | 0.00 | 84 | 1018.0 |
| 20260509033036 | 50 | 345 | 3.0 | 6.0 | 0.00 | 0.00 | 0.00 | 84 | 1018.0 |
| 20260509032518 | 50 | 350 | 3.0 | 6.0 | 0.00 | 0.00 | 0.00 | 84 | 1017.9 |
| 20260509032023 | 50 | 342 | 3.0 | 6.0 | 0.00 | 0.00 | 0.00 | 84 | 1017.9 |
| 20260509031537 | 50 | 352 | 3.0 | 6.0 | 0.00 | 0.00 | 0.00 | 84 | 1018.0 |
| 20260509031016 | 50 | 346 | 3.0 | 7.0 | 0.00 | 0.00 | 0.00 | 84 | 1017.9 |
| 20260509030518 | 50 | 356 | 4.0 | 7.0 | 0.00 | 0.00 | 0.00 | 84 | 1018.0 |
| 20260509030033 | 50 | 11 | 4.0 | 7.0 | 0.00 | 0.00 | 0.00 | 84 | 1018.0 |
| 20260509025515 | 50 | 4 | 4.0 | 7.0 | 0.00 | 0.00 | 0.00 | 84 | 1017.9 |
| 20260509025016 | 50 | 4 | 5.0 | 7.0 | 0.00 | 0.00 | 0.00 | 85 | 1017.9 |
| 20260509024536 | 50 | 358 | 5.0 | 7.0 | 0.00 | 0.00 | 0.00 | 85 | 1017.9 |
| 20260509024016 | 50 | 13 | 5.0 | 7.0 | 0.00 | 0.00 | 0.00 | 85 | 1017.9 |
| 20260509023516 | 50 | 355 | 5.0 | 7.0 | 0.00 | 0.00 | 0.00 | 85 | 1017.9 |
| 20260509023034 | 50 | 4 | 5.0 | 7.0 | 0.00 | 0.00 | 0.00 | 85 | 1018.0 |
| 20260509022522 | 50 | 11 | 5.0 | 7.0 | 0.00 | 0.00 | 0.00 | 85 | 1018.1 |
| 20260509022016 | 50 | 8 | 4.0 | 7.0 | 0.00 | 0.00 | 0.00 | 85 | 1018.1 |
| 20260509021532 | 51 | 1 | 4.0 | 6.0 | 0.00 | 0.00 | 0.00 | 85 | 1018.0 |
| 20260509021017 | 51 | 359 | 4.0 | 6.0 | 0.00 | 0.00 | 0.00 | 85 | 1018.0 |
| 20260509020520 | 51 | 4 | 4.0 | 6.0 | 0.00 | 0.00 | 0.00 | 85 | 1018.0 |
| 20260509020036 | 51 | 357 | 4.0 | 6.0 | 0.00 | 0.00 | 0.00 | 85 | 1018.0 |
| 20260509015518 | 51 | 356 | 3.0 | 5.0 | 0.00 | 0.00 | 0.00 | 85 | 1018.1 |
| 20260509015015 | 51 | 350 | 3.0 | 5.0 | 0.00 | 0.00 | 0.00 | 85 | 1018.1 |
| 20260509014535 | 51 | 345 | 2.0 | 4.0 | 0.00 | 0.00 | 0.00 | 84 | 1018.1 |
| 20260509014021 | 52 | 351 | 2.0 | 4.0 | 0.00 | 0.00 | 0.00 | 85 | 1018.1 |
| 20260509013521 | 51 | 352 | 2.0 | 5.0 | 0.00 | 0.00 | 0.00 | 86 | 1018.2 |
| 20260509013033 | 51 | 346 | 3.0 | 6.0 | 0.00 | 0.00 | 0.00 | 87 | 1018.1 |
| 20260509012515 | 51 | 340 | 4.0 | 6.0 | 0.00 | 0.00 | 0.00 | 87 | 1018.1 |
| 20260509012018 | 51 | 3 | 4.0 | 6.0 | 0.00 | 0.00 | 0.00 | 87 | 1018.1 |
| 20260509011532 | 51 | 1 | 4.0 | 6.0 | 0.00 | 0.00 | 0.00 | 86 | 1018.2 |
| 20260509011016 | 51 | 360 | 4.0 | 6.0 | 0.00 | 0.00 | 0.00 | 85 | 1018.2 |
| 20260509010515 | 51 | 7 | 3.0 | 5.0 | 0.00 | 0.00 | 0.00 | 85 | 1018.2 |
| 20260509010031 | 51 | 6 | 3.0 | 7.0 | 0.00 | 0.00 | 0.00 | 84 | 1018.2 |
| 20260509005516 | 51 | 342 | 4.0 | 7.0 | 0.00 | 0.00 | 0.00 | 84 | 1018.2 |
| 20260509005019 | 52 | 352 | 4.0 | 6.0 | 0.00 | 0.00 | 0.00 | 83 | 1018.1 |
| 20260509004537 | 52 | 345 | 3.0 | 5.0 | 0.00 | 0.00 | 0.00 | 82 | 1018.0 |
| 20260509004015 | 52 | 4 | 3.0 | 5.0 | 0.00 | 0.00 | 0.00 | 82 | 1018.1 |
| 20260509003522 | 53 | 356 | 3.0 | 4.0 | 0.00 | 0.00 | 0.00 | 82 | 1018.0 |
| 20260509003040 | 53 | 339 | 1.0 | 4.0 | 0.00 | 0.00 | 0.00 | 82 | 1018.1 |
| 20260509002516 | 52 | 343 | 2.0 | 4.0 | 0.00 | 0.00 | 0.00 | 83 | 1018.2 |
| 20260509002016 | 52 | 348 | 2.0 | 3.0 | 0.00 | 0.00 | 0.00 | 83 | 1018.1 |
| 20260509001536 | 52 | 335 | 1.0 | 3.0 | 0.00 | 0.00 | 0.00 | 84 | 1018.1 |
| 20260509001017 | 52 | 345 | 1.0 | 4.0 | 0.00 | 0.00 | 0.00 | 84 | 1018.2 |
| 20260509000515 | 52 | 334 | 1.0 | 4.0 | 0.00 | 0.00 | 0.00 | 84 | 1018.2 |
| 20260509000032 | 52 | 359 | 2.0 | 4.0 | 0.00 | 0.00 | 0.00 | 84 | 1018.2 |
| 20260508235518 | 52 | 340 | 2.0 | 4.0 | 0.00 | 0.00 | 0.00 | 84 | 1018.2 |
| 20260508235016 | 52 | 349 | 2.0 | 4.0 | 0.00 | 0.00 | 0.00 | 83 | 1018.2 |
| 20260508234532 | 52 | 341 | 2.0 | 4.0 | 0.00 | 0.00 | 0.00 | 83 | 1018.2 |
| 20260508234016 | 52 | 342 | 1.0 | 3.0 | 0.00 | 0.00 | 0.00 | 82 | 1018.2 |
| 20260508233515 | 51 | 346 | 2.0 | 3.0 | 0.00 | 0.00 | 0.00 | 81 | 1018.2 |
| 20260508233035 | 51 | 342 | 1.0 | 3.0 | 0.00 | 0.00 | 0.00 | 81 | 1018.2 |
| 20260508232515 | 51 | 341 | 1.0 | 3.0 | 0.00 | 0.00 | 0.00 | 81 | 1018.2 |
| 20260508232015 | 51 | 340 | 2.0 | 2.0 | 0.00 | 0.00 | 0.00 | 81 | 1018.2 |
| 20260508231537 | 51 | 340 | 1.0 | 2.0 | 0.00 | 0.00 | 0.00 | 81 | 1018.2 |
| 20260508231015 | 51 | 340 | 1.0 | 2.0 | 0.00 | 0.00 | 0.00 | 81 | 1018.3 |
| 20260508230516 | 51 | 340 | 1.0 | 2.0 | 0.00 | 0.00 | 0.00 | 81 | 1018.3 |
| 20260508230032 | 51 | 340 | 1.0 | 2.0 | 0.00 | 0.00 | 0.00 | 81 | 1018.2 |
| 20260508225521 | 51 | 340 | 1.0 | 2.0 | 0.00 | 0.00 | 0.00 | 81 | 1018.3 |
| 20260508225015 | 51 | 340 | 1.0 | 2.0 | 0.00 | 0.00 | 0.00 | 81 | 1018.3 |
| 20260508224535 | 50 | 340 | 1.0 | 3.0 | 0.00 | 0.00 | 0.00 | 82 | 1018.3 |
| 20260508224016 | 50 | 340 | 1.0 | 3.0 | 0.00 | 0.00 | 0.00 | 82 | 1018.2 |
| 20260508223515 | 50 | 343 | 2.0 | 3.0 | 0.00 | 0.00 | 0.00 | 82 | 1018.3 |
| 20260508223041 | 50 | 343 | 2.0 | 3.0 | 0.00 | 0.00 | 0.00 | 82 | 1018.2 |
| 20260508222517 | 50 | 349 | 3.0 | 4.0 | 0.00 | 0.00 | 0.00 | 83 | 1018.2 |
| 20260508222021 | 51 | 350 | 3.0 | 4.0 | 0.00 | 0.00 | 0.00 | 83 | 1018.2 |
| 20260508221536 | 50 | 353 | 3.0 | 4.0 | 0.00 | 0.00 | 0.00 | 83 | 1018.2 |
| 20260508221016 | 50 | 340 | 3.0 | 4.0 | 0.00 | 0.00 | 0.00 | 84 | 1018.2 |
| 20260508220519 | 50 | 343 | 3.0 | 3.0 | 0.00 | 0.00 | 0.00 | 84 | 1018.1 |
| 20260508220039 | 51 | 346 | 2.0 | 4.0 | 0.00 | 0.00 | 0.00 | 85 | 1018.2 |
| 20260508215522 | 51 | 336 | 2.0 | 4.0 | 0.00 | 0.00 | 0.00 | 85 | 1018.1 |
| 20260508215015 | 50 | 344 | 3.0 | 4.0 | 0.00 | 0.00 | 0.00 | 84 | 1018.2 |
| 20260508214535 | 50 | 341 | 2.0 | 3.0 | 0.00 | 0.00 | 0.00 | 82 | 1018.2 |
| 20260508214016 | 51 | 344 | 2.0 | 3.0 | 0.00 | 0.00 | 0.00 | 84 | 1018.2 |